Trinidad, CO

4:59 PM MDT on June 19, 2019 (GMT -0600)
Stokes

Weather History for KTAD - May, 2019

Change the Weather History Date:

Saturday, May 18, 2019

  Actual Average Record
Temperature  
Mean Temperature 51 °F 60 °F  
Max Temperature 66 °F 75 °F 90 °F (1956)
Min Temperature 36 °F 45 °F 31 °F (1983)
Degree Days  
Heating Degree Days 14 6  
Month to date heating degree days 175 147  
Since 1 July heating degree days 5347 5437  
Cooling Degree Days 0 1  
Month to date cooling degree days 5 7  
Year to date cooling degree days 5 9  
Growing Degree Days 1 (Base 50)    
Moisture  
Dew Point 25 °F    
Average Humidity 45    
Maximum Humidity 70    
Minimum Humidity 19    
Precipitation  
Precipitation 0.00 in 0.05 in 2.69 in (1955)
Month to date precipitation 0.84 0.86  
Sea Level Pressure  
Sea Level Pressure 29.65 in    
Wind  
Wind Speed 11 mph (NW)    
Max Wind Speed 32 mph    
Max Gust Speed 44 mph    
Visibility 10 miles    
Events      
T = Trace of Precipitation, MM = Missing Value Source: NWS Daily Summary

Daily Weather History Graph

Daily Weather History Graph

Search for Another Location

Airport or City:

Astronomy

May. 18, 2019 Rise Set
Actual Time 5:46 AM MDT 8:01 PM MDT
Civil Twilight 5:17 AM MDT 8:31 PM MDT
Nautical Twilight 4:41 AM MDT 9:07 PM MDT
Astronomical Twilight 4:01 AM MDT 9:46 PM MDT
Moon 8:00 PM MDT (5/18) 5:52 AM MDT (5/18)
Length of Visible Light 15h 13m
Length of Day
14h 15m
Full, 100% of the Moon is Illuminated
May 18
Full
May 18
Full
May 26
Last Quarter
Jun 3
New
Jun 10
First Quarter

Hourly Weather History & Observations

Time (MDT) Temp. Windchill Dew Point Humidity Pressure Visibility Wind Dir Wind Speed Gust Speed Precip Events Conditions
12:54 AM 48.9 °F - 26.1 °F 41% 29.55 in 10.0 mi West 8.1 mph - N/A   Clear
1:54 AM 45.0 °F 40.6 °F 27.0 °F 49% 29.57 in 10.0 mi NW 8.1 mph - N/A   Clear
2:54 AM 41.0 °F 35.2 °F 27.0 °F 57% 29.58 in 10.0 mi SW 9.2 mph - N/A   Clear
3:54 AM 39.0 °F 32.8 °F 26.1 °F 60% 29.60 in - WSW 9.2 mph - N/A   Clear
4:54 AM 39.0 °F 34.0 °F 27.0 °F 62% 29.62 in - WNW 6.9 mph - N/A   Clear
5:54 AM 45.0 °F 42.6 °F 24.1 °F 44% 29.60 in - SW 4.6 mph - N/A   Clear
6:54 AM 46.9 °F - 25.0 °F 42% 29.62 in - WSW 5.8 mph - N/A   Clear
7:54 AM 53.1 °F - 19.0 °F 26% 29.62 in - WNW 15.0 mph - N/A   Clear
8:54 AM 55.9 °F - 16.0 °F 21% 29.60 in 10.0 mi West 17.3 mph 27.6 mph N/A   Clear
9:54 AM 57.9 °F - 18.0 °F 21% 29.57 in 10.0 mi WNW 8.1 mph 19.6 mph N/A   Clear
10:39 AM 61.0 °F - 18.0 °F 19% 29.73 in 10.0 mi NW 13.8 mph 20.7 mph N/A   Clear
10:54 AM 57.9 °F - 15.1 °F 19% 29.58 in 10.0 mi WNW 9.2 mph 23.0 mph N/A   Scattered Clouds
11:54 AM 62.1 °F - 19.0 °F 19% 29.57 in 10.0 mi NW 12.7 mph 25.3 mph N/A   Partly Cloudy
12:54 PM 63.0 °F - 21.0 °F 20% 29.56 in 10.0 mi WNW 15.0 mph 28.8 mph N/A   Mostly Cloudy
1:54 PM 60.1 °F - 23.0 °F 24% 29.59 in 10.0 mi NNE 17.3 mph - N/A   Overcast
2:54 PM 55.0 °F - 27.0 °F 34% 29.68 in - North 31.1 mph 42.6 mph N/A   Mostly Cloudy
3:54 PM 57.9 °F - 27.0 °F 31% 29.68 in - North 13.8 mph 26.5 mph N/A   Clear
4:54 PM 59.0 °F - 27.0 °F 29% 29.69 in - NNW 23.0 mph 36.8 mph N/A   Scattered Clouds
5:54 PM 60.1 °F - 23.0 °F 24% 29.67 in - North 13.8 mph 27.6 mph N/A   Clear
6:54 PM 57.9 °F - 28.0 °F 32% 29.69 in - NNE 6.9 mph - N/A   Clear
7:54 PM 52.0 °F - 30.9 °F 45% 29.73 in - North 8.1 mph - N/A   Clear
8:54 PM 48.0 °F - 30.0 °F 50% 29.76 in - NNE 4.6 mph - N/A   Clear
9:54 PM 43.0 °F 38.8 °F 30.0 °F 60% 29.80 in - SW 6.9 mph - N/A   Clear
10:54 PM 39.0 °F 33.4 °F 30.0 °F 70% 29.83 in - NW 8.1 mph - N/A   Clear
11:54 PM 37.0 °F 31.0 °F 28.9 °F 73% 29.83 in - WNW 8.1 mph - N/A   Clear